Flag for U.S.A. Weather past 2 weeks in Chesapeake, Virginia, U.S.A.

Now
73 °F

Clear.


Feels Like: 70 °F
Forecast: 70 / 86 °F
Wind: No wind

Location: Chesapeake Municipal Airport

Current Time: Aug 20, 2014 at 5:48:41 AM

Latest Report: Aug 20, 2014 at 5:15 AM


Visibility: 7 mi

Pressure: 29.89 "Hg

Humidity: 94%

Dew point: 72 °F

Location of ChesapeakeLocation

Historic Weather in Chesapeake — Graph

°F

Chesapeake temperature yesterday

Maximum temperature yesterday: 84 °F (at 4:55 PM)
Minimum temperature yesterday: 73 °F (at 12:15 AM)
Average temperature yesterday: 77 °F

Past Weeks' High & Low Weather Summary

 TemperatureHumidityPressure
High90 °F (Aug 6, 1:35 PM)100% (Aug 5, 4:15 AM)30.16 "Hg (Aug 5, 4:15 AM)
Low61 °F (Aug 8, 6:15 AM)30% (Aug 14, 12:15 PM)29.76 "Hg (Aug 13, 1:55 AM)
Average75 °F79%29.97 "Hg
* Reported Aug 5 4:15 AM — Aug 20 4:55 AM, Chesapeake, Weather by CustomWeather, © 2014

Note: Actual official high and low records may vary slightly from our data, if they occured in-between our weather recording intervals... More about our weather records

Advertising

Chesapeake weather history for previous 24 hours

 ConditionsComfort  
Time TempWeatherWind HumidityBarometerVisibility
4:55 AM
Aug 20
72 °FFog.No wind100%29.89 "Hg5 mi
4:15 AM73 °FClear.3 mph94%29.88 "Hg7 mi
3:55 AM73 °FClear.No wind94%29.89 "Hg7 mi
3:15 AM73 °FClear.No wind94%29.88 "Hg7 mi
2:55 AM75 °FClear.3 mph89%29.88 "Hg7 mi
2:15 AM75 °FPassing clouds.3 mph89%29.88 "Hg10 mi
1:55 AM75 °FPassing clouds.No wind89%29.87 "Hg7 mi
1:35 AM75 °FPassing clouds.3 mph89%29.88 "Hg7 mi
1:15 AM75 °FPassing clouds.No wind89%29.89 "Hg7 mi
12:55 AM75 °FPassing clouds.No wind89%29.89 "Hg7 mi
12:35 AM75 °FPassing clouds.3 mph89%29.89 "Hg7 mi
12:15 AM77 °FPassing clouds.3 mph83%29.89 "Hg7 mi
11:55 PM
Aug 19
77 °FOvercast.3 mph83%29.89 "Hg7 mi
11:35 PM77 °FMostly cloudy.5 mph89%29.89 "Hg7 mi
11:15 PM77 °FMostly cloudy.5 mph89%29.89 "Hg7 mi
10:55 PM75 °FMostly cloudy.No wind94%29.89 "Hg7 mi
10:35 PM75 °FPartly cloudy.No wind94%29.89 "Hg7 mi
10:15 PM73 °FPartly cloudy.No wind94%29.88 "Hg7 mi
9:55 PM77 °FPartly cloudy.No wind89%29.88 "Hg7 mi
9:15 PM75 °FPassing clouds.No wind89%29.86 "Hg7 mi
8:55 PM75 °FPartly cloudy.No wind89%29.86 "Hg10 mi
8:35 PM77 °FPartly sunny.3 mph83%29.85 "Hg5 mi
8:15 PM79 °FPartly sunny.5 mph79%29.84 "Hg7 mi
7:55 PM79 °FMore clouds than sun.6 mph79%29.84 "Hg7 mi
7:35 PM79 °FMore clouds than sun.6 mph79%29.84 "Hg7 mi
7:15 PM79 °FPartly sunny.6 mph79%29.83 "Hg7 mi
6:55 PM81 °FCloudy.6 mph79%29.83 "Hg7 mi
6:35 PM81 °FMore clouds than sun.5 mph79%29.82 "Hg7 mi
6:15 PM81 °FBroken clouds.3 mph79%29.83 "Hg7 mi
5:55 PM81 °FBroken clouds.6 mph74%29.82 "Hg7 mi
5:35 PM82 °FMore clouds than sun.8 mph74%29.82 "Hg7 mi
4:55 PM84 °FPartly sunny.8 mph66%29.81 "Hg7 mi
4:35 PM82 °FBroken clouds.7 mph74%29.80 "Hg7 mi
4:15 PM82 °FMore clouds than sun.5 mph74%29.80 "Hg7 mi
3:55 PM82 °FMore clouds than sun.6 mph74%29.80 "Hg7 mi
3:35 PM82 °FMore clouds than sun.5 mph74%29.80 "Hg7 mi
3:15 PM81 °FCloudy.5 mph79%29.80 "Hg10 mi
2:55 PM81 °FCloudy.No wind79%29.81 "Hg7 mi
2:35 PM79 °FCloudy.3 mph89%29.82 "Hg7 mi
1:55 PM81 °FBroken clouds.No wind79%29.82 "Hg7 mi
1:35 PM81 °FScattered clouds.No wind79%29.82 "Hg7 mi
1:15 PM79 °FCloudy.No wind84%29.82 "Hg7 mi
12:55 PM79 °FMore clouds than sun.No wind79%29.82 "Hg7 mi
12:35 PM79 °FMostly cloudy.3 mph84%29.82 "Hg7 mi
12:15 PM79 °FOvercast.3 mph79%29.82 "Hg10 mi
11:55 AM77 °FOvercast.No wind89%29.82 "Hg7 mi
11:35 AM77 °FFog.6 mph89%29.83 "Hg5 mi
11:15 AM77 °FOvercast.5 mph83%29.83 "Hg7 mi
10:55 AM77 °FOvercast.5 mph83%29.83 "Hg5 mi
10:35 AM75 °FLow clouds.5 mph89%29.83 "Hg7 mi
10:15 AM75 °FLow clouds.5 mph89%29.82 "Hg7 mi
9:55 AM75 °FLow clouds.3 mph89%29.81 "Hg7 mi
9:35 AM75 °FLow clouds.No wind89%29.81 "Hg7 mi
9:15 AM75 °FFog.3 mph89%29.81 "Hg5 mi
8:55 AM75 °FMostly cloudy.3 mph89%29.80 "Hg7 mi
8:15 AM73 °FFog.5 mph94%29.80 "Hg5 mi
7:55 AM73 °FFog.3 mph94%29.80 "Hg5 mi
7:35 AM73 °FFog.3 mph94%29.81 "Hg4 mi
7:15 AM73 °FFog.3 mph94%29.80 "Hg5 mi
6:55 AM73 °FFog.3 mph94%29.80 "Hg5 mi
6:35 AM73 °FFog.No wind94%29.79 "Hg5 mi
6:15 AM73 °FFog.No wind94%29.78 "Hg5 mi
5:55 AM73 °FFog.No wind94%29.78 "Hg5 mi
5:35 AM73 °FFog.No wind94%29.78 "Hg5 mi
5:15 AM73 °FFog.No wind94%29.77 "Hg5 mi
Weather by CustomWeather, © 2014

See weather overviewHow to use our weather pages